Time,TemperatureF,DewpointF,PressureIn,WindDirection,WindDirectionDegrees,WindSpeedMPH,WindSpeedGustMPH,Humidity,HourlyPrecipIn,Conditions,Clouds,dailyrainin,SoftwareType,DateUTC
2013-10-04 00:32:00,74.8,71.4,30.07,ESE,112,0.0,0.0,89,0.00,,,0.00,WeatherCatV1.21B27,2013-10-04 04:32:00,
2013-10-04 00:35:00,74.8,71.4,30.07,ESE,112,0.0,0.0,89,0.00,,,0.00,WeatherCatV1.21B27,2013-10-04 04:35:00,
2013-10-04 00:36:00,74.8,71.4,30.07,ESE,112,0.0,0.0,89,0.00,,,0.00,WeatherCatV1.21B27,2013-10-04 04:36:00,
2013-10-04 00:38:00,74.8,71.4,30.07,ESE,112,0.0,0.0,89,0.00,,,0.00,WeatherCatV1.21B27,2013-10-04 04:38:00,
2013-10-04 00:40:00,74.8,71.4,30.07,ESE,112,0.0,0.0,89,0.00,,,0.00,WeatherCatV1.21B27,2013-10-04 04:40:00,
2013-10-04 00:42:00,74.8,71.4,30.07,East,90,0.0,0.0,89,0.00,,,0.00,WeatherCatV1.21B27,2013-10-04 04:42:00,
2013-10-04 00:43:00,74.8,71.4,30.07,ENE,67,0.0,0.0,89,0.00,,,0.00,WeatherCatV1.21B27,2013-10-04 04:43:00,
2013-10-04 00:44:00,74.8,71.4,30.07,ENE,67,0.0,0.0,89,0.00,,,0.00,WeatherCatV1.21B27,2013-10-04 04:44:00,
2013-10-04 00:45:00,74.7,71.3,30.07,ENE,67,0.0,0.0,89,0.00,,,0.00,WeatherCatV1.21B27,2013-10-04 04:45:00,
2013-10-04 00:50:00,74.7,71.3,30.06,ENE,67,0.0,0.0,89,0.00,,,0.00,WeatherCatV1.21B27,2013-10-04 04:50:00,
2013-10-04 00:54:00,74.5,71.1,30.06,ESE,112,0.0,0.0,89,0.00,,,0.00,WeatherCatV1.21B27,2013-10-04 04:54:00,
2013-10-04 00:56:00,74.5,71.1,30.06,ESE,112,0.0,0.0,89,0.00,,,0.00,WeatherCatV1.21B27,2013-10-04 04:56:00,
2013-10-04 01:00:00,74.5,71.1,30.06,ENE,67,0.0,0.0,89,0.00,,,0.00,WeatherCatV1.21B27,2013-10-04 05:00:00,
2013-10-04 01:03:00,74.5,71.4,30.06,ESE,112,0.0,0.0,90,0.00,,,0.00,WeatherCatV1.21B27,2013-10-04 05:03:00,
2013-10-04 01:05:00,74.5,71.4,30.06,ENE,67,0.0,0.0,90,0.00,,,0.00,WeatherCatV1.21B27,2013-10-04 05:05:00,
2013-10-04 01:06:00,74.7,71.6,30.06,SE,135,0.0,0.0,90,0.00,,,0.00,WeatherCatV1.21B27,2013-10-04 05:06:00,
2013-10-04 01:11:00,74.7,71.6,30.06,SE,135,0.0,2.0,90,0.00,,,0.00,WeatherCatV1.21B27,2013-10-04 05:11:00,
2013-10-04 01:14:00,74.8,71.8,30.06,SE,135,0.0,0.0,90,0.00,,,0.00,WeatherCatV1.21B27,2013-10-04 05:14:00,
2013-10-04 01:16:00,74.8,71.8,30.06,SE,135,0.0,0.0,90,0.00,,,0.00,WeatherCatV1.21B27,2013-10-04 05:16:00,
2013-10-04 01:18:00,74.8,71.8,30.06,SSE,157,0.0,0.0,90,0.00,,,0.00,WeatherCatV1.21B27,2013-10-04 05:18:00,
2013-10-04 01:24:00,74.8,71.8,30.06,SSE,157,0.0,0.0,90,0.00,,,0.00,WeatherCatV1.21B27,2013-10-04 05:24:00,
2013-10-04 01:31:00,74.8,71.8,30.06,SSE,157,0.0,0.0,90,0.00,,,0.00,WeatherCatV1.21B27,2013-10-04 05:31:00,
2013-10-04 01:36:00,74.8,71.8,30.06,ESE,112,0.0,0.0,90,0.00,,,0.00,WeatherCatV1.21B27,2013-10-04 05:36:00,
2013-10-04 01:41:00,74.7,71.6,30.06,ESE,112,0.0,0.0,90,0.00,,,0.00,WeatherCatV1.21B27,2013-10-04 05:41:00,
2013-10-04 01:46:00,74.5,71.4,30.07,ESE,112,0.0,0.0,90,0.00,,,0.00,WeatherCatV1.21B27,2013-10-04 05:46:00,
2013-10-04 01:51:00,74.5,71.4,30.06,ESE,112,0.0,0.0,90,0.00,,,0.00,WeatherCatV1.21B27,2013-10-04 05:51:00,
2013-10-04 01:56:00,74.5,71.4,30.06,ESE,112,0.0,0.0,90,0.00,,,0.00,WeatherCatV1.21B27,2013-10-04 05:56:00,
2013-10-04 02:01:00,74.3,71.2,30.06,ESE,112,0.0,0.0,90,0.00,,,0.00,WeatherCatV1.21B27,2013-10-04 06:01:00,
2013-10-04 02:06:00,74.3,71.2,30.06,ESE,112,0.0,0.0,90,0.00,,,0.00,WeatherCatV1.21B27,2013-10-04 06:06:00,
2013-10-04 02:11:00,74.1,71.1,30.05,ESE,112,0.0,0.0,90,0.00,,,0.00,WeatherCatV1.21B27,2013-10-04 06:11:00,
2013-10-04 02:16:00,74.1,71.1,30.05,ESE,112,0.0,0.0,90,0.00,,,0.00,WeatherCatV1.21B27,2013-10-04 06:16:00,
2013-10-04 02:21:00,73.9,70.9,30.05,SSE,157,0.0,0.0,90,0.00,,,0.00,WeatherCatV1.21B27,2013-10-04 06:21:00,
2013-10-04 02:26:00,73.9,70.9,30.05,SSE,157,0.0,0.0,90,0.00,,,0.00,WeatherCatV1.21B27,2013-10-04 06:26:00,
2013-10-04 02:31:00,73.9,70.9,30.05,SSE,157,0.0,0.0,90,0.00,,,0.00,WeatherCatV1.21B27,2013-10-04 06:31:00,
2013-10-04 02:36:00,73.8,70.7,30.05,SSE,157,0.0,0.0,90,0.00,,,0.00,WeatherCatV1.21B27,2013-10-04 06:36:00,
2013-10-04 02:41:00,73.6,70.5,30.05,SSE,157,0.0,0.0,90,0.00,,,0.00,WeatherCatV1.21B27,2013-10-04 06:41:00,
2013-10-04 02:46:00,73.6,70.5,30.05,SSE,157,0.0,0.0,90,0.00,,,0.00,WeatherCatV1.21B27,2013-10-04 06:46:00,
2013-10-04 02:51:00,73.6,70.5,30.04,SW,225,0.0,0.0,90,0.00,,,0.00,WeatherCatV1.21B27,2013-10-04 06:51:00,
2013-10-04 02:56:00,73.4,70.3,30.05,SW,225,0.0,0.0,90,0.00,,,0.00,WeatherCatV1.21B27,2013-10-04 06:56:00,
2013-10-04 03:01:00,73.2,70.2,30.04,SW,225,0.0,0.0,90,0.00,,,0.00,WeatherCatV1.21B27,2013-10-04 07:01:00,
2013-10-04 03:06:00,73.2,70.2,30.04,SW,225,0.0,0.0,90,0.00,,,0.00,WeatherCatV1.21B27,2013-10-04 07:06:00,
2013-10-04 03:11:00,73.2,70.2,30.04,SW,225,0.0,0.0,90,0.00,,,0.00,WeatherCatV1.21B27,2013-10-04 07:11:00,
2013-10-04 03:16:00,73.2,70.2,30.04,SW,225,0.0,0.0,90,0.00,,,0.00,WeatherCatV1.21B27,2013-10-04 07:16:00,
2013-10-04 03:21:00,73.0,70.0,30.04,SW,225,0.0,0.0,90,0.00,,,0.00,WeatherCatV1.21B27,2013-10-04 07:21:00,
2013-10-04 03:26:00,73.0,70.0,30.04,SW,225,0.0,0.0,90,0.00,,,0.00,WeatherCatV1.21B27,2013-10-04 07:26:00,
2013-10-04 03:31:00,73.0,70.0,30.03,SW,225,0.0,0.0,90,0.00,,,0.00,WeatherCatV1.21B27,2013-10-04 07:31:00,
2013-10-04 03:36:00,72.9,69.8,30.04,SW,225,0.0,0.0,90,0.00,,,0.00,WeatherCatV1.21B27,2013-10-04 07:36:00,
2013-10-04 03:41:00,72.7,69.6,30.04,SW,225,0.0,0.0,90,0.00,,,0.00,WeatherCatV1.21B27,2013-10-04 07:41:00,
2013-10-04 03:46:00,72.7,69.6,30.03,SW,225,0.0,0.0,90,0.00,,,0.00,WeatherCatV1.21B27,2013-10-04 07:46:00,
2013-10-04 03:51:00,72.7,69.6,30.03,SW,225,0.0,0.0,90,0.00,,,0.00,WeatherCatV1.21B27,2013-10-04 07:51:00,
2013-10-04 03:56:00,72.5,69.4,30.03,SW,225,0.0,0.0,90,0.00,,,0.00,WeatherCatV1.21B27,2013-10-04 07:56:00,
2013-10-04 04:01:00,72.5,69.4,30.03,SW,225,0.0,0.0,90,0.00,,,0.00,WeatherCatV1.21B27,2013-10-04 08:01:00,
2013-10-04 04:06:00,72.3,69.3,30.03,SW,225,0.0,0.0,90,0.00,,,0.00,WeatherCatV1.21B27,2013-10-04 08:06:00,
2013-10-04 04:11:00,72.3,69.6,30.03,SW,225,0.0,0.0,91,0.00,,,0.00,WeatherCatV1.21B27,2013-10-04 08:11:00,
2013-10-04 04:16:00,72.1,69.4,30.03,SW,225,0.0,0.0,91,0.00,,,0.00,WeatherCatV1.21B27,2013-10-04 08:16:00,
2013-10-04 04:21:00,72.1,69.4,30.03,SW,225,0.0,0.0,91,0.00,,,0.00,WeatherCatV1.21B27,2013-10-04 08:21:00,
2013-10-04 04:26:00,72.1,69.4,30.03,SW,225,0.0,0.0,91,0.00,,,0.00,WeatherCatV1.21B27,2013-10-04 08:26:00,
2013-10-04 04:31:00,72.0,69.2,30.03,SW,225,0.0,0.0,91,0.00,,,0.00,WeatherCatV1.21B27,2013-10-04 08:31:00,
2013-10-04 04:36:00,71.8,69.0,30.03,SW,225,0.0,0.0,91,0.00,,,0.00,WeatherCatV1.21B27,2013-10-04 08:36:00,
2013-10-04 04:41:00,71.8,69.0,30.03,SW,225,0.0,0.0,91,0.00,,,0.00,WeatherCatV1.21B27,2013-10-04 08:41:00,
2013-10-04 04:46:00,71.8,69.0,30.03,SW,225,0.0,0.0,91,0.00,,,0.00,WeatherCatV1.21B27,2013-10-04 08:46:00,
2013-10-04 04:51:00,71.8,69.0,30.03,SW,225,0.0,0.0,91,0.00,,,0.00,WeatherCatV1.21B27,2013-10-04 08:51:00,
2013-10-04 04:56:00,71.8,69.0,30.03,SW,225,0.0,0.0,91,0.00,,,0.00,WeatherCatV1.21B27,2013-10-04 08:56:00,
2013-10-04 05:01:00,71.8,69.0,30.03,SW,225,0.0,0.0,91,0.00,,,0.00,WeatherCatV1.21B27,2013-10-04 09:01:00,
2013-10-04 05:06:00,71.4,68.4,30.03,SW,225,0.0,0.0,90,0.00,,,0.00,WeatherCatV1.21B27,2013-10-04 09:06:00,
2013-10-04 05:11:00,71.4,68.4,30.04,SW,225,0.0,0.0,90,0.00,,,0.00,WeatherCatV1.21B27,2013-10-04 09:11:00,
2013-10-04 05:16:00,71.4,68.4,30.04,SW,225,0.0,0.0,90,0.00,,,0.00,WeatherCatV1.21B27,2013-10-04 09:16:00,
2013-10-04 05:21:00,71.4,68.4,30.04,SW,225,0.0,0.0,90,0.00,,,0.00,WeatherCatV1.21B27,2013-10-04 09:21:00,
2013-10-04 05:26:00,71.4,68.4,30.04,SW,225,0.0,0.0,90,0.00,,,0.00,WeatherCatV1.21B27,2013-10-04 09:26:00,
2013-10-04 05:31:00,71.2,68.2,30.04,SW,225,0.0,0.0,90,0.00,,,0.00,WeatherCatV1.21B27,2013-10-04 09:31:00,
2013-10-04 05:36:00,71.2,68.2,30.04,SW,225,0.0,0.0,90,0.00,,,0.00,WeatherCatV1.21B27,2013-10-04 09:36:00,
2013-10-04 05:41:00,71.2,68.2,30.04,SW,225,0.0,0.0,90,0.00,,,0.00,WeatherCatV1.21B27,2013-10-04 09:41:00,
2013-10-04 05:46:00,71.2,68.2,30.04,SW,225,0.0,0.0,90,0.00,,,0.00,WeatherCatV1.21B27,2013-10-04 09:46:00,
2013-10-04 05:51:00,71.1,68.3,30.04,SW,225,0.0,0.0,91,0.00,,,0.00,WeatherCatV1.21B27,2013-10-04 09:51:00,
2013-10-04 05:56:00,71.1,68.3,30.05,SW,225,0.0,0.0,91,0.00,,,0.00,WeatherCatV1.21B27,2013-10-04 09:56:00,
2013-10-04 06:01:00,70.9,68.1,30.05,WSW,247,0.0,0.0,91,0.00,,,0.00,WeatherCatV1.21B27,2013-10-04 10:01:00,
2013-10-04 06:06:00,70.9,68.1,30.04,WSW,247,0.0,0.0,91,0.00,,,0.00,WeatherCatV1.21B27,2013-10-04 10:06:00,
2013-10-04 06:11:00,70.9,68.1,30.05,WSW,247,0.0,0.0,91,0.00,,,0.00,WeatherCatV1.21B27,2013-10-04 10:11:00,
2013-10-04 06:16:00,70.9,68.1,30.05,WSW,247,0.0,0.0,91,0.00,,,0.00,WeatherCatV1.21B27,2013-10-04 10:16:00,
2013-10-04 06:21:00,70.7,67.9,30.05,WSW,247,0.0,0.0,91,0.00,,,0.00,WeatherCatV1.21B27,2013-10-04 10:21:00,
2013-10-04 06:26:00,70.7,67.9,30.05,WSW,247,0.0,0.0,91,0.00,,,0.00,WeatherCatV1.21B27,2013-10-04 10:26:00,
2013-10-04 06:31:00,70.5,67.9,30.05,WSW,247,0.0,0.0,91,0.00,,,0.00,WeatherCatV1.21B27,2013-10-04 10:31:00,
2013-10-04 06:36:00,70.5,67.8,30.05,WSW,247,0.0,0.0,91,0.00,,,0.00,WeatherCatV1.21B27,2013-10-04 10:36:00,
2013-10-04 06:41:00,70.5,67.8,30.06,WSW,247,0.0,0.0,91,0.00,,,0.00,WeatherCatV1.21B27,2013-10-04 10:41:00,
2013-10-04 06:46:00,70.5,67.8,30.06,WSW,247,0.0,0.0,91,0.00,,,0.00,WeatherCatV1.21B27,2013-10-04 10:46:00,
2013-10-04 06:51:00,70.3,67.6,30.06,WSW,247,0.0,0.0,91,0.00,,,0.00,WeatherCatV1.21B27,2013-10-04 10:51:00,
2013-10-04 06:56:00,70.3,67.6,30.06,WSW,247,0.0,0.0,91,0.00,,,0.00,WeatherCatV1.21B27,2013-10-04 10:56:00,
2013-10-04 07:01:00,70.3,67.6,30.06,WSW,247,0.0,0.0,91,0.00,,,0.00,WeatherCatV1.21B27,2013-10-04 11:01:00,
2013-10-04 07:06:00,70.3,67.6,30.07,WSW,247,0.0,0.0,91,0.00,,,0.00,WeatherCatV1.21B27,2013-10-04 11:06:00,
2013-10-04 07:11:00,70.3,67.6,30.07,West,270,0.0,0.0,91,0.00,,,0.00,WeatherCatV1.21B27,2013-10-04 11:11:00,
2013-10-04 07:16:00,70.3,67.6,30.07,West,270,0.0,0.0,91,0.00,,,0.00,WeatherCatV1.21B27,2013-10-04 11:16:00,
2013-10-04 07:21:00,70.3,67.6,30.07,West,270,0.0,0.0,91,0.00,,,0.00,WeatherCatV1.21B27,2013-10-04 11:21:00,
2013-10-04 07:26:00,70.3,67.6,30.07,West,270,0.0,0.0,91,0.00,,,0.00,WeatherCatV1.21B27,2013-10-04 11:26:00,
2013-10-04 07:31:00,70.3,67.6,30.07,West,270,0.0,0.0,91,0.00,,,0.00,WeatherCatV1.21B27,2013-10-04 11:31:00,
2013-10-04 07:36:00,70.3,67.6,30.07,West,270,0.0,0.0,91,0.00,,,0.00,WeatherCatV1.21B27,2013-10-04 11:36:00,
2013-10-04 07:41:00,70.3,67.6,30.07,West,270,0.0,0.0,91,0.00,,,0.00,WeatherCatV1.21B27,2013-10-04 11:41:00,
2013-10-04 07:46:00,70.3,67.6,30.07,West,270,0.0,0.0,91,0.00,,,0.00,WeatherCatV1.21B27,2013-10-04 11:46:00,
2013-10-04 07:51:00,70.2,67.4,30.07,West,270,0.0,0.0,91,0.00,,,0.00,WeatherCatV1.21B27,2013-10-04 11:51:00,
2013-10-04 07:56:00,70.3,67.6,30.07,West,270,0.0,0.0,91,0.00,,,0.00,WeatherCatV1.21B27,2013-10-04 11:56:00,
2013-10-04 08:01:00,70.3,67.6,30.07,West,270,0.0,0.0,91,0.00,,,0.00,WeatherCatV1.21B27,2013-10-04 12:01:00,
2013-10-04 08:06:00,70.3,67.6,30.07,West,270,0.0,0.0,91,0.00,,,0.00,WeatherCatV1.21B27,2013-10-04 12:06:00,
2013-10-04 08:11:00,70.3,67.6,30.07,West,270,0.0,0.0,91,0.00,,,0.00,WeatherCatV1.21B27,2013-10-04 12:11:00,
2013-10-04 08:16:00,70.5,67.8,30.07,West,270,0.0,0.0,91,0.00,,,0.00,WeatherCatV1.21B27,2013-10-04 12:16:00,
2013-10-04 08:21:00,70.5,67.8,30.07,West,270,0.0,0.0,91,0.00,,,0.00,WeatherCatV1.21B27,2013-10-04 12:21:00,
2013-10-04 08:26:00,70.7,67.9,30.08,West,270,0.0,0.0,91,0.00,,,0.00,WeatherCatV1.21B27,2013-10-04 12:26:00,
2013-10-04 08:31:00,70.9,68.1,30.07,West,270,0.0,0.0,91,0.00,,,0.00,WeatherCatV1.21B27,2013-10-04 12:31:00,
2013-10-04 08:36:00,71.2,68.5,30.07,West,270,0.0,0.0,91,0.00,,,0.00,WeatherCatV1.21B27,2013-10-04 12:36:00,
2013-10-04 08:41:00,71.2,68.5,30.08,West,270,0.0,0.0,91,0.00,,,0.00,WeatherCatV1.21B27,2013-10-04 12:41:00,
2013-10-04 08:46:00,71.4,68.8,30.08,West,270,0.0,0.0,91,0.00,,,0.00,WeatherCatV1.21B27,2013-10-04 12:46:00,
2013-10-04 08:51:00,71.8,69.0,30.08,West,270,0.0,0.0,91,0.00,,,0.00,WeatherCatV1.21B27,2013-10-04 12:51:00,
2013-10-04 08:56:00,72.0,69.5,30.08,West,270,0.0,0.0,92,0.00,,,0.00,WeatherCatV1.21B27,2013-10-04 12:56:00,
2013-10-04 09:01:00,72.3,69.6,30.08,WNW,292,0.0,0.0,91,0.00,,,0.00,WeatherCatV1.21B27,2013-10-04 13:01:00,
2013-10-04 09:06:00,72.9,70.1,30.09,NNE,22,0.0,0.0,91,0.00,,,0.00,WeatherCatV1.21B27,2013-10-04 13:06:00,
2013-10-04 09:11:00,73.2,70.5,30.09,NNE,22,0.0,0.0,91,0.00,,,0.00,WeatherCatV1.21B27,2013-10-04 13:11:00,
2013-10-04 09:16:00,73.8,71.3,30.09,NE,45,0.0,0.0,92,0.00,,,0.00,WeatherCatV1.21B27,2013-10-04 13:16:00,
2013-10-04 09:21:00,74.1,71.7,30.09,NE,45,0.0,2.7,92,0.00,,,0.00,WeatherCatV1.21B27,2013-10-04 13:21:00,
2013-10-04 09:26:00,74.5,72.0,30.09,SSW,202,0.0,0.0,92,0.00,,,0.00,WeatherCatV1.21B27,2013-10-04 13:26:00,
2013-10-04 09:31:00,75.0,72.3,30.09,WNW,292,0.0,0.0,91,0.00,,,0.00,WeatherCatV1.21B27,2013-10-04 13:31:00,
2013-10-04 09:36:00,75.0,72.3,30.10,SSW,202,0.0,0.0,91,0.00,,,0.00,WeatherCatV1.21B27,2013-10-04 13:36:00,
2013-10-04 09:41:00,75.2,72.4,30.10,SSW,202,0.0,0.0,91,0.00,,,0.00,WeatherCatV1.21B27,2013-10-04 13:41:00,
2013-10-04 09:46:00,75.4,72.6,30.10,West,270,0.0,0.0,91,0.00,,,0.00,WeatherCatV1.21B27,2013-10-04 13:46:00,
2013-10-04 09:51:00,75.6,72.8,30.10,NE,45,0.0,0.0,91,0.00,,,0.00,WeatherCatV1.21B27,2013-10-04 13:51:00,
2013-10-04 09:56:00,75.7,72.7,30.10,ENE,67,0.0,0.0,90,0.00,,,0.00,WeatherCatV1.21B27,2013-10-04 13:56:00,
2013-10-04 10:01:00,76.5,73.2,30.10,ESE,112,0.0,0.0,90,0.00,,,0.00,WeatherCatV1.21B27,2013-10-04 14:01:00,
2013-10-04 10:06:00,76.8,73.8,30.10,ENE,67,0.0,0.0,90,0.00,,,0.00,WeatherCatV1.21B27,2013-10-04 14:06:00,
2013-10-04 10:11:00,77.2,73.8,30.10,East,90,0.9,0.9,89,0.00,,,0.00,WeatherCatV1.21B27,2013-10-04 14:11:00,
2013-10-04 10:16:00,77.5,73.8,30.10,NNW,337,1.6,4.0,88,0.00,,,0.00,WeatherCatV1.21B27,2013-10-04 14:16:00,
2013-10-04 10:21:00,77.7,73.6,30.11,ENE,67,0.0,0.0,87,0.00,,,0.00,WeatherCatV1.21B27,2013-10-04 14:21:00,
2013-10-04 10:26:00,77.9,73.8,30.11,NE,45,0.0,0.0,87,0.00,,,0.00,WeatherCatV1.21B27,2013-10-04 14:26:00,
2013-10-04 10:31:00,78.1,73.9,30.10,ENE,67,1.1,3.8,87,0.00,,,0.00,WeatherCatV1.21B27,2013-10-04 14:31:00,
2013-10-04 10:36:00,78.4,74.3,30.10,NE,45,2.5,2.5,87,0.00,,,0.00,WeatherCatV1.21B27,2013-10-04 14:36:00,
2013-10-04 10:41:00,79.0,74.8,30.11,SW,225,0.0,0.0,87,0.00,,,0.00,WeatherCatV1.21B27,2013-10-04 14:41:00,
2013-10-04 10:46:00,79.3,74.8,30.11,ENE,67,1.8,2.5,86,0.00,,,0.00,WeatherCatV1.21B27,2013-10-04 14:46:00,
2013-10-04 10:51:00,79.5,74.6,30.10,NE,45,2.0,2.0,85,0.00,,,0.00,WeatherCatV1.21B27,2013-10-04 14:51:00,
2013-10-04 10:56:00,79.9,75.0,30.10,NE,45,1.1,1.1,85,0.00,,,0.00,WeatherCatV1.21B27,2013-10-04 14:56:00,
2013-10-04 11:01:00,79.9,75.0,30.10,ENE,67,3.1,3.1,85,0.00,,,0.00,WeatherCatV1.21B27,2013-10-04 15:01:00,
2013-10-04 11:06:00,80.1,75.1,30.10,SE,135,0.0,2.9,85,0.00,,,0.00,WeatherCatV1.21B27,2013-10-04 15:06:00,
2013-10-04 11:11:00,80.2,74.9,30.11,NE,45,2.0,2.0,84,0.00,,,0.00,WeatherCatV1.21B27,2013-10-04 15:11:00,
2013-10-04 11:16:00,80.4,75.1,30.10,East,90,0.0,6.0,84,0.00,,,0.00,WeatherCatV1.21B27,2013-10-04 15:16:00,
2013-10-04 11:17:00,80.4,75.1,30.10,East,90,0.0,6.0,84,0.00,,,0.00,WeatherCatV1.21B27,2013-10-04 15:17:00,
2013-10-04 11:22:00,80.6,75.3,30.10,NNE,22,3.6,3.6,84,0.00,,,0.00,WeatherCatV1.21B27,2013-10-04 15:22:00,
2013-10-04 11:27:00,80.8,75.2,30.10,NE,45,2.5,3.6,83,0.00,,,0.00,WeatherCatV1.21B27,2013-10-04 15:27:00,
2013-10-04 11:32:00,80.8,75.2,30.10,NE,45,4.5,4.5,83,0.00,,,0.00,WeatherCatV1.21B27,2013-10-04 15:32:00,
2013-10-04 11:37:00,81.0,75.3,30.11,NNE,22,6.0,6.0,83,0.00,,,0.00,WeatherCatV1.21B27,2013-10-04 15:37:00,
2013-10-04 11:42:00,81.0,75.3,30.10,NNE,22,1.6,2.7,83,0.00,,,0.00,WeatherCatV1.21B27,2013-10-04 15:42:00,
2013-10-04 11:47:00,81.0,75.0,30.11,NNE,22,5.8,6.7,82,0.00,,,0.00,WeatherCatV1.21B27,2013-10-04 15:47:00,
2013-10-04 11:52:00,81.1,75.2,30.11,ENE,67,4.0,4.0,82,0.00,,,0.00,WeatherCatV1.21B27,2013-10-04 15:52:00,
2013-10-04 11:57:00,81.1,75.0,30.11,NE,45,1.3,4.5,82,0.00,,,0.00,WeatherCatV1.21B27,2013-10-04 15:57:00,
2013-10-04 12:03:00,81.1,75.2,30.11,NE,45,3.4,3.4,82,0.00,,,0.00,WeatherCatV1.21B27,2013-10-04 16:03:00,
2013-10-04 12:08:00,81.1,75.2,30.11,NE,45,1.1,1.1,82,0.00,,,0.00,WeatherCatV1.21B27,2013-10-04 16:08:00,
2013-10-04 12:13:00,81.1,75.2,30.10,NE,45,0.9,0.9,82,0.00,,,0.00,WeatherCatV1.21B27,2013-10-04 16:13:00,
2013-10-04 12:18:00,81.1,75.2,30.10,NE,45,1.1,1.1,82,0.00,,,0.00,WeatherCatV1.21B27,2013-10-04 16:18:00,
2013-10-04 12:23:00,81.1,74.8,30.10,ENE,67,4.0,4.5,81,0.00,,,0.00,WeatherCatV1.21B27,2013-10-04 16:23:00,
2013-10-04 12:28:00,81.1,74.8,30.10,NE,45,1.3,1.3,81,0.00,,,0.00,WeatherCatV1.21B27,2013-10-04 16:28:00,
2013-10-04 12:33:00,81.1,74.8,30.10,NNE,22,1.6,1.6,81,0.00,,,0.00,WeatherCatV1.21B27,2013-10-04 16:33:00,
2013-10-04 12:38:00,81.3,75.0,30.10,North,0,4.0,4.0,81,0.00,,,0.00,WeatherCatV1.21B27,2013-10-04 16:38:00,
2013-10-04 12:43:00,81.5,75.2,30.10,East,90,2.0,2.0,81,0.00,,,0.00,WeatherCatV1.21B27,2013-10-04 16:43:00,
2013-10-04 12:48:00,81.5,75.2,30.10,South,180,0.0,0.0,81,0.00,,,0.00,WeatherCatV1.21B27,2013-10-04 16:48:00,
2013-10-04 12:53:00,81.7,75.4,30.10,NNE,22,3.1,4.2,81,0.00,,,0.00,WeatherCatV1.21B27,2013-10-04 16:53:00,
2013-10-04 12:58:00,81.7,75.4,30.10,South,180,0.0,0.0,81,0.00,,,0.00,WeatherCatV1.21B27,2013-10-04 16:58:00,
2013-10-04 13:03:00,82.0,75.7,30.10,NE,45,6.0,6.0,81,0.00,,,0.00,WeatherCatV1.21B27,2013-10-04 17:03:00,
2013-10-04 13:08:00,82.0,75.7,30.09,NNE,22,0.0,0.0,81,0.00,,,0.00,WeatherCatV1.21B27,2013-10-04 17:08:00,
2013-10-04 13:13:00,82.0,75.4,30.08,East,90,2.0,2.0,80,0.00,,,0.00,WeatherCatV1.21B27,2013-10-04 17:13:00,
2013-10-04 13:18:00,82.0,75.4,30.08,ESE,112,2.2,2.2,80,0.00,,,0.00,WeatherCatV1.21B27,2013-10-04 17:18:00,
2013-10-04 13:23:00,82.0,75.0,30.08,ESE,112,0.0,3.6,79,0.00,,,0.00,WeatherCatV1.21B27,2013-10-04 17:23:00,
2013-10-04 13:28:00,82.0,75.4,30.08,West,270,0.9,0.9,80,0.00,,,0.00,WeatherCatV1.21B27,2013-10-04 17:28:00,
2013-10-04 13:33:00,82.0,75.4,30.08,NE,45,3.8,3.8,80,0.00,,,0.00,WeatherCatV1.21B27,2013-10-04 17:33:00,
2013-10-04 14:03:00,82.8,76.1,30.07,NNE,22,0.9,0.9,80,0.00,,,0.00,WeatherCatV1.21B27,2013-10-04 18:03:00,
2013-10-04 14:08:00,82.8,76.4,30.06,ENE,67,1.1,5.6,81,0.00,,,0.00,WeatherCatV1.21B27,2013-10-04 18:08:00,
2013-10-04 14:13:00,82.9,76.2,30.06,NE,45,5.8,5.8,80,0.00,,,0.00,WeatherCatV1.21B27,2013-10-04 18:13:00,
2013-10-04 14:18:00,82.9,76.2,30.05,ENE,67,7.2,7.2,80,0.00,,,0.00,WeatherCatV1.21B27,2013-10-04 18:18:00,
2013-10-04 14:23:00,82.9,76.2,30.05,NE,45,1.1,6.5,80,0.00,,,0.00,WeatherCatV1.21B27,2013-10-04 18:23:00,
2013-10-04 14:28:00,82.8,76.1,30.06,SW,225,4.2,4.2,80,0.00,,,0.00,WeatherCatV1.21B27,2013-10-04 18:28:00,
2013-10-04 14:33:00,82.9,76.2,30.05,NNE,22,4.5,4.5,80,0.00,,,0.00,WeatherCatV1.21B27,2013-10-04 18:33:00,
2013-10-04 14:38:00,82.9,76.2,30.05,NE,45,6.7,6.7,80,0.00,,,0.00,WeatherCatV1.21B27,2013-10-04 18:38:00,
2013-10-04 14:43:00,82.8,76.1,30.05,ENE,67,2.9,2.9,80,0.00,,,0.00,WeatherCatV1.21B27,2013-10-04 18:43:00,
2013-10-04 14:48:00,82.9,76.6,30.05,NNE,22,4.7,4.7,81,0.00,,,0.00,WeatherCatV1.21B27,2013-10-04 18:48:00,
2013-10-04 14:53:00,83.1,76.4,30.05,SE,135,0.0,0.0,80,0.00,,,0.00,WeatherCatV1.21B27,2013-10-04 18:53:00,
2013-10-04 14:58:00,83.1,76.0,30.05,ENE,67,0.7,0.7,79,0.00,,,0.00,WeatherCatV1.21B27,2013-10-04 18:58:00,
2013-10-04 15:03:00,83.3,76.6,30.05,ENE,67,4.5,4.5,80,0.00,,,0.00,WeatherCatV1.21B27,2013-10-04 19:03:00,
2013-10-04 15:08:00,83.3,76.1,30.05,NE,45,8.9,8.9,79,0.00,,,0.00,WeatherCatV1.21B27,2013-10-04 19:08:00,
2013-10-04 15:13:00,83.5,75.9,30.05,NE,45,7.4,7.4,78,0.00,,,0.00,WeatherCatV1.21B27,2013-10-04 19:13:00,
2013-10-04 15:18:00,83.5,75.9,30.05,ENE,67,8.9,8.9,78,0.00,,,0.00,WeatherCatV1.21B27,2013-10-04 19:18:00,
2013-10-04 15:23:00,83.5,75.9,30.05,East,90,0.0,3.6,78,0.00,,,0.00,WeatherCatV1.21B27,2013-10-04 19:23:00,
2013-10-04 15:28:00,83.5,75.9,30.05,NNE,22,1.8,1.8,78,0.00,,,0.00,WeatherCatV1.21B27,2013-10-04 19:28:00,
2013-10-04 15:33:00,83.5,75.9,30.05,NNE,22,2.9,2.9,78,0.00,,,0.00,WeatherCatV1.21B27,2013-10-04 19:33:00,
2013-10-04 15:38:00,84.0,76.4,30.05,NNW,337,3.4,3.4,78,0.00,,,0.00,WeatherCatV1.21B27,2013-10-04 19:38:00,
2013-10-04 15:43:00,84.0,76.4,30.05,SE,135,1.3,1.3,78,0.00,,,0.00,WeatherCatV1.21B27,2013-10-04 19:43:00,
2013-10-04 15:48:00,84.0,76.0,30.04,East,90,0.0,0.0,77,0.00,,,0.00,WeatherCatV1.21B27,2013-10-04 19:48:00,
2013-10-04 15:53:00,84.4,76.3,30.05,ENE,67,4.0,4.0,77,0.00,,,0.00,WeatherCatV1.21B27,2013-10-04 19:53:00,
2013-10-04 15:58:00,84.6,76.5,30.05,ESE,112,5.1,5.1,77,0.00,,,0.00,WeatherCatV1.21B27,2013-10-04 19:58:00,
2013-10-04 16:03:00,84.7,76.7,30.05,ENE,67,3.6,3.6,77,0.00,,,0.00,WeatherCatV1.21B27,2013-10-04 20:03:00,
2013-10-04 16:08:00,84.9,76.9,30.04,SSW,202,0.0,0.0,77,0.00,,,0.00,WeatherCatV1.21B27,2013-10-04 20:08:00,
2013-10-04 16:13:00,84.9,76.9,30.04,North,0,2.9,2.9,77,0.00,,,0.00,WeatherCatV1.21B27,2013-10-04 20:13:00,
2013-10-04 16:18:00,85.3,77.2,30.04,North,0,3.1,3.1,77,0.00,,,0.00,WeatherCatV1.21B27,2013-10-04 20:18:00,
2013-10-04 16:23:00,85.8,77.4,30.04,ENE,67,5.1,5.1,76,0.00,,,0.00,WeatherCatV1.21B27,2013-10-04 20:23:00,
2013-10-04 16:28:00,85.6,76.8,30.04,NNE,22,9.8,9.8,75,0.00,,,0.00,WeatherCatV1.21B27,2013-10-04 20:28:00,
2013-10-04 16:33:00,85.8,76.6,30.04,NE,45,4.9,4.9,74,0.00,,,0.00,WeatherCatV1.21B27,2013-10-04 20:33:00,
2013-10-04 16:38:00,86.0,76.0,30.04,NNE,22,2.0,2.0,72,0.00,,,0.00,WeatherCatV1.21B27,2013-10-04 20:38:00,
2013-10-04 16:43:00,86.5,76.1,30.04,East,90,3.8,3.8,71,0.00,,,0.00,WeatherCatV1.21B27,2013-10-04 20:43:00,
2013-10-04 16:48:00,86.9,76.2,30.04,ESE,112,1.3,1.3,71,0.00,,,0.00,WeatherCatV1.21B27,2013-10-04 20:48:00,
2013-10-04 16:53:00,87.1,76.2,30.04,ENE,67,2.9,2.9,70,0.00,,,0.00,WeatherCatV1.21B27,2013-10-04 20:53:00,
2013-10-04 16:58:00,87.1,76.2,30.03,SSW,202,1.1,1.1,70,0.00,,,0.00,WeatherCatV1.21B27,2013-10-04 20:58:00,
2013-10-04 17:03:00,87.1,76.2,30.04,East,90,2.7,2.7,70,0.00,,,0.00,WeatherCatV1.21B27,2013-10-04 21:03:00,
2013-10-04 17:08:00,86.9,76.0,30.03,ENE,67,6.0,6.0,70,0.00,,,0.00,WeatherCatV1.21B27,2013-10-04 21:08:00,
2013-10-04 17:13:00,86.9,76.0,30.04,NNE,22,2.9,2.9,70,0.00,,,0.00,WeatherCatV1.21B27,2013-10-04 21:13:00,
2013-10-04 17:20:00,87.1,76.2,30.04,ENE,67,0.0,3.1,69,0.00,,,0.00,WeatherCatV1.21B27,2013-10-04 21:20:00,
2013-10-04 17:25:00,87.1,76.2,30.04,North,0,8.7,8.7,70,0.00,,,0.00,WeatherCatV1.21B27,2013-10-04 21:25:00,
2013-10-04 17:30:00,86.7,75.4,30.04,SSE,157,0.0,0.0,69,0.00,,,0.00,WeatherCatV1.21B27,2013-10-04 21:30:00,
2013-10-04 17:35:00,86.7,75.8,30.04,SSE,157,0.7,0.7,70,0.00,,,0.00,WeatherCatV1.21B27,2013-10-04 21:35:00,
2013-10-04 17:40:00,87.1,76.2,30.03,SE,135,0.0,0.0,70,0.00,,,0.00,WeatherCatV1.21B27,2013-10-04 21:40:00,
2013-10-04 17:45:00,87.4,76.5,30.04,NE,45,7.6,7.6,70,0.00,,,0.00,WeatherCatV1.21B27,2013-10-04 21:45:00,
2013-10-04 17:50:00,86.7,75.8,30.04,East,90,0.0,0.0,70,0.00,,,0.00,WeatherCatV1.21B27,2013-10-04 21:50:00,
2013-10-04 17:55:00,85.8,75.4,30.04,SE,135,1.8,1.8,71,0.00,,,0.00,WeatherCatV1.21B27,2013-10-04 21:55:00,
2013-10-04 18:00:00,85.1,75.1,30.04,SSE,157,0.0,0.0,72,0.00,,,0.00,WeatherCatV1.21B27,2013-10-04 22:00:00,
2013-10-04 18:05:00,84.2,74.6,30.04,ENE,67,2.9,2.9,73,0.00,,,0.00,WeatherCatV1.21B27,2013-10-04 22:05:00,
2013-10-04 18:10:00,83.5,74.7,30.04,SE,135,0.0,8.7,75,0.00,,,0.00,WeatherCatV1.21B27,2013-10-04 22:10:00,
2013-10-04 18:15:00,83.1,74.3,30.04,ENE,67,1.3,1.3,75,0.00,,,0.00,WeatherCatV1.21B27,2013-10-04 22:15:00,
2013-10-04 18:20:00,82.2,74.3,30.04,East,90,0.0,1.3,77,0.00,,,0.00,WeatherCatV1.21B27,2013-10-04 22:20:00,
2013-10-04 18:25:00,82.0,74.1,30.04,ENE,67,3.6,3.6,77,0.00,,,0.00,WeatherCatV1.21B27,2013-10-04 22:25:00,
2013-10-04 18:30:00,81.7,74.2,30.04,ENE,67,2.5,2.5,78,0.00,,,0.00,WeatherCatV1.21B27,2013-10-04 22:30:00,
2013-10-04 18:35:00,81.1,73.7,30.04,ENE,67,0.0,0.0,78,0.00,,,0.00,WeatherCatV1.21B27,2013-10-04 22:35:00,
2013-10-04 18:40:00,81.0,73.5,30.04,South,180,0.0,0.0,78,0.00,,,0.00,WeatherCatV1.21B27,2013-10-04 22:40:00,
2013-10-04 18:45:00,80.6,73.2,30.04,ESE,112,2.9,2.9,78,0.00,,,0.00,WeatherCatV1.21B27,2013-10-04 22:45:00,
2013-10-04 18:50:00,80.2,73.6,30.04,SSE,157,0.0,0.0,80,0.00,,,0.00,WeatherCatV1.21B27,2013-10-04 22:50:00,
2013-10-04 18:55:00,80.1,73.4,30.04,SSE,157,0.0,0.0,80,0.00,,,0.00,WeatherCatV1.21B27,2013-10-04 22:55:00,
2013-10-04 19:00:00,79.7,73.0,30.04,ENE,67,4.7,4.7,80,0.00,,,0.00,WeatherCatV1.21B27,2013-10-04 23:00:00,
2013-10-04 19:05:00,79.5,73.2,30.04,NE,45,0.0,0.0,81,0.00,,,0.00,WeatherCatV1.21B27,2013-10-04 23:05:00,
2013-10-04 19:10:00,79.3,73.4,30.04,ENE,67,0.0,0.0,82,0.00,,,0.00,WeatherCatV1.21B27,2013-10-04 23:10:00,
2013-10-04 19:15:00,79.2,73.2,30.04,ENE,67,3.4,3.4,82,0.00,,,0.00,WeatherCatV1.21B27,2013-10-04 23:15:00,
2013-10-04 19:20:00,79.0,73.0,30.05,NE,45,0.0,0.0,82,0.00,,,0.00,WeatherCatV1.21B27,2013-10-04 23:20:00,
2013-10-04 19:25:00,79.0,73.0,30.05,NNE,22,3.1,3.1,82,0.00,,,0.00,WeatherCatV1.21B27,2013-10-04 23:25:00,
2013-10-04 19:31:00,78.6,73.0,30.05,SE,135,0.0,0.0,83,0.00,,,0.00,WeatherCatV1.21B27,2013-10-04 23:31:00,
2013-10-04 19:36:00,78.6,73.0,30.05,SE,135,0.0,0.0,83,0.00,,,0.00,WeatherCatV1.21B27,2013-10-04 23:36:00,
2013-10-04 19:41:00,78.4,72.9,30.05,SW,225,0.0,0.0,83,0.00,,,0.00,WeatherCatV1.21B27,2013-10-04 23:41:00,
2013-10-04 19:46:00,78.4,72.9,30.05,NW,315,0.0,0.0,83,0.00,,,0.00,WeatherCatV1.21B27,2013-10-04 23:46:00,
2013-10-04 19:51:00,78.3,72.7,30.05,ESE,112,0.0,1.8,83,0.00,,,0.00,WeatherCatV1.21B27,2013-10-04 23:51:00,
2013-10-04 19:56:00,78.1,72.9,30.05,SE,135,0.0,0.0,84,0.00,,,0.00,WeatherCatV1.21B27,2013-10-04 23:56:00,
2013-10-04 20:01:00,78.1,72.9,30.05,SSE,157,0.0,0.0,84,0.00,,,0.00,WeatherCatV1.21B27,2013-10-05 00:01:00,
2013-10-04 20:06:00,77.9,72.7,30.05,SE,135,0.0,0.0,84,0.00,,,0.00,WeatherCatV1.21B27,2013-10-05 00:06:00,
2013-10-04 20:11:00,77.9,73.0,30.06,East,90,0.0,0.0,85,0.00,,,0.00,WeatherCatV1.21B27,2013-10-05 00:11:00,
2013-10-04 20:16:00,77.7,72.9,30.05,ENE,67,0.0,0.0,85,0.00,,,0.00,WeatherCatV1.21B27,2013-10-05 00:16:00,
2013-10-04 20:21:00,77.7,72.9,30.06,NE,45,2.2,2.2,85,0.00,,,0.00,WeatherCatV1.21B27,2013-10-05 00:21:00,
2013-10-04 20:26:00,77.5,72.7,30.05,SSW,202,0.0,0.0,85,0.00,,,0.00,WeatherCatV1.21B27,2013-10-05 00:26:00,
2013-10-04 20:31:00,77.5,72.7,30.06,South,180,0.0,0.0,85,0.00,,,0.00,WeatherCatV1.21B27,2013-10-05 00:31:00,
2013-10-04 20:36:00,77.5,72.7,30.06,NNW,337,0.0,0.0,85,0.00,,,0.00,WeatherCatV1.21B27,2013-10-05 00:36:00,
2013-10-04 20:41:00,77.4,72.5,30.06,East,90,0.0,0.0,85,0.00,,,0.00,WeatherCatV1.21B27,2013-10-05 00:41:00,
2013-10-04 20:46:00,77.4,72.5,30.06,ENE,67,0.0,0.0,85,0.00,,,0.00,WeatherCatV1.21B27,2013-10-05 00:46:00,
2013-10-04 20:51:00,77.2,72.3,30.06,NE,45,0.0,0.0,85,0.00,,,0.00,WeatherCatV1.21B27,2013-10-05 00:51:00,
2013-10-04 20:56:00,77.2,72.3,30.06,ENE,67,1.8,1.8,85,0.00,,,0.00,WeatherCatV1.21B27,2013-10-05 00:56:00,
2013-10-04 21:01:00,77.2,72.7,30.07,SW,225,0.0,0.0,86,0.00,,,0.00,WeatherCatV1.21B27,2013-10-05 01:01:00,
2013-10-04 21:06:00,77.2,72.7,30.07,East,90,0.0,0.0,86,0.00,,,0.00,WeatherCatV1.21B27,2013-10-05 01:06:00,
2013-10-04 21:11:00,77.2,72.7,30.07,SSE,157,0.0,0.0,86,0.00,,,0.00,WeatherCatV1.21B27,2013-10-05 01:11:00,
2013-10-04 21:16:00,77.0,72.1,30.07,North,0,0.0,0.0,85,0.00,,,0.00,WeatherCatV1.21B27,2013-10-05 01:16:00,
2013-10-04 21:20:00,76.8,72.3,30.08,SW,225,0.0,0.9,86,0.00,,,0.00,WeatherCatV1.21B27,2013-10-05 01:20:00,
2013-10-04 21:26:00,76.8,72.3,30.08,ENE,67,0.0,0.0,86,0.00,,,0.00,WeatherCatV1.21B27,2013-10-05 01:26:00,
2013-10-04 21:31:00,76.8,72.3,30.08,ESE,112,0.0,0.0,86,0.00,,,0.00,WeatherCatV1.21B27,2013-10-05 01:31:00,
2013-10-04 21:36:00,76.8,72.3,30.08,East,90,0.0,0.0,86,0.00,,,0.00,WeatherCatV1.21B27,2013-10-05 01:36:00,
2013-10-04 21:41:00,76.8,72.3,30.08,North,0,0.0,0.0,86,0.00,,,0.00,WeatherCatV1.21B27,2013-10-05 01:41:00,
2013-10-04 21:46:00,76.8,72.3,30.08,NE,45,0.0,0.0,86,0.00,,,0.00,WeatherCatV1.21B27,2013-10-05 01:46:00,
2013-10-04 21:51:00,76.6,72.5,30.08,ENE,67,1.1,1.1,87,0.00,,,0.00,WeatherCatV1.21B27,2013-10-05 01:51:00,
2013-10-04 21:56:00,76.6,72.1,30.08,WNW,292,0.0,0.0,86,0.00,,,0.00,WeatherCatV1.21B27,2013-10-05 01:56:00,
2013-10-04 22:01:00,76.6,72.1,30.08,SW,225,0.0,0.0,86,0.00,,,0.00,WeatherCatV1.21B27,2013-10-05 02:01:00,
2013-10-04 22:06:00,76.6,72.1,30.08,SSW,202,0.0,0.0,86,0.00,,,0.00,WeatherCatV1.21B27,2013-10-05 02:06:00,
2013-10-04 22:11:00,76.6,72.1,30.08,East,90,0.0,0.0,86,0.00,,,0.00,WeatherCatV1.21B27,2013-10-05 02:11:00,
2013-10-04 22:16:00,76.6,72.1,30.08,WSW,247,0.0,0.0,86,0.00,,,0.00,WeatherCatV1.21B27,2013-10-05 02:16:00,
2013-10-04 22:21:00,76.5,72.0,30.09,ESE,112,0.0,0.0,86,0.00,,,0.00,WeatherCatV1.21B27,2013-10-05 02:21:00,
2013-10-04 22:26:00,76.5,72.0,30.09,SSW,202,0.0,0.0,86,0.00,,,0.00,WeatherCatV1.21B27,2013-10-05 02:26:00,
2013-10-04 22:31:00,76.5,72.0,30.09,SSE,157,0.0,0.0,86,0.00,,,0.00,WeatherCatV1.21B27,2013-10-05 02:31:00,
2013-10-04 22:36:00,76.3,71.8,30.09,South,180,0.0,0.0,86,0.00,,,0.00,WeatherCatV1.21B27,2013-10-05 02:36:00,
2013-10-04 22:41:00,76.3,71.8,30.09,SE,135,0.0,0.0,86,0.00,,,0.00,WeatherCatV1.21B27,2013-10-05 02:41:00,
2013-10-04 22:46:00,76.1,71.6,30.09,SW,225,0.0,0.0,86,0.00,,,0.00,WeatherCatV1.21B27,2013-10-05 02:46:00,
2013-10-04 22:51:00,76.1,71.6,30.08,WSW,247,0.0,0.0,86,0.00,,,0.00,WeatherCatV1.21B27,2013-10-05 02:51:00,
2013-10-04 22:56:00,75.9,71.8,30.08,WSW,247,0.0,0.0,87,0.00,,,0.00,WeatherCatV1.21B27,2013-10-05 02:56:00,
2013-10-04 23:01:00,75.9,71.8,30.08,ENE,67,0.0,0.0,87,0.00,,,0.00,WeatherCatV1.21B27,2013-10-05 03:01:00,
2013-10-04 23:06:00,75.7,71.6,30.08,SE,135,0.0,0.0,87,0.00,,,0.00,WeatherCatV1.21B27,2013-10-05 03:06:00,
2013-10-04 23:11:00,75.7,71.6,30.08,SSE,157,0.0,0.0,87,0.00,,,0.00,WeatherCatV1.21B27,2013-10-05 03:11:00,
2013-10-04 23:16:00,75.6,71.5,30.08,WSW,247,0.0,0.0,87,0.00,,,0.00,WeatherCatV1.21B27,2013-10-05 03:16:00,
2013-10-04 23:21:00,75.6,71.5,30.08,WSW,247,0.0,0.0,87,0.00,,,0.00,WeatherCatV1.21B27,2013-10-05 03:21:00,
2013-10-04 23:26:00,75.4,71.3,30.08,WSW,247,0.0,0.0,87,0.00,,,0.00,WeatherCatV1.21B27,2013-10-05 03:26:00,
2013-10-04 23:31:00,75.2,71.1,30.08,WSW,247,0.0,0.0,87,0.00,,,0.00,WeatherCatV1.21B27,2013-10-05 03:31:00,
2013-10-04 23:36:00,75.0,70.9,30.08,WSW,247,0.0,0.0,87,0.00,,,0.00,WeatherCatV1.21B27,2013-10-05 03:36:00,
2013-10-04 23:41:00,75.0,70.9,30.07,WSW,247,0.0,0.0,87,0.00,,,0.00,WeatherCatV1.21B27,2013-10-05 03:41:00,
2013-10-04 23:46:00,75.0,71.3,30.07,WSW,247,0.0,0.0,88,0.00,,,0.00,WeatherCatV1.21B27,2013-10-05 03:46:00,
2013-10-04 23:51:00,74.8,71.1,30.07,WSW,247,0.0,0.0,88,0.00,,,0.00,WeatherCatV1.21B27,2013-10-05 03:51:00,
2013-10-04 23:56:00,74.7,70.9,30.07,WSW,247,0.0,0.0,88,0.00,,,0.00,WeatherCatV1.21B27,2013-10-05 03:56:00,